sat.trackr.live / text

‹ back to catalog

HULIANWANG DIGUI-45

NORAD 65048 · 2025-162F

PAYLOAD ACTIVE UNKNOWN

§ Identity

Operator
Country
PRC
Launch date
2025-07-30
Launch site
WSC
Launch vehicle
Mass (kg)
RCS (m²)

External: N2YO · Heavens-Above · Gunter

§ Orbital elements

Epoch: 2026-05-25T02:51:58.381344Z

Period
108.33 min
Inclination
50.0060°
Eccentricity
0.0000474
Mean motion
13.29323610 rev/d
Perigee alt
1,149.0 km
Apogee alt
1,149.7 km
Semi-major
7,527.5 km
B*
8.6784e-5
RAAN
348.4326°
Arg perigee
40.0009°
Mean anomaly
320.0898°
Rev number
4,029

§ Raw data

HULIANWANG DIGUI-451 65048U 25162F   26145.11942571 -.00000084  00000+0  86784-4 0  99962 65048  50.0060 348.4326 0000474  40.0009 320.0898 13.29323610 40299

JSON: /api/v1/satellites/65048 · /tle

For live sub-satellite position, see the globe view (requires WebGL).

§ Visibility from observer

Set your observer location to see the next 7 days of passes ≥ 10°. The values pass through the URL so the page stays shareable.

No JS? Fill the form by hand. The geolocation button needs JavaScript.